User: anonymous   Login
Location: Morlupo
(42.1333°N, 12.5000°E)
Time: 05:08:44
(UTC+00:00)
Language:

SJ-6B - Orbit

View from above orbital plane
View from above orbital plane
View from above satellite
View from above satellite

Ground track
Ground track

The orbit data is extracted from the following two-line orbital elements,

1 28415U 04035C   20337.36874669  .00000233  00000-0  19352-4 0  9998
2 28415  97.5931  16.9174 0052543 138.5919 221.9310 15.06966705888927
Epoch (UTC): 02 December 2020 08:50:59
Eccentricity: 0.0052543
inclination: 97.5931°
perigee height: 509 km
apogee height: 582 km
right ascension of ascending node: 16.9174°
argument of perigee: 138.5919°
revolutions per day: 15.06966705
mean anomaly at epoch: 221.9310°
orbit number at epoch: 88892

The dashed part of the orbit path shows where the satellite is in the earth's shadow,  

DLR